Home > Weather > Lindau (Bodensee) > Past weeks

Flag for Germany Weather for the Past 2 Weeks in Lindau (Bodensee), Bavaria, Germany

Now
46 °F

Broken clouds.


Feels Like: 42 °F
Forecast: 38 / 43 °F
Wind: 9 mph from East

Location: Saint Gallen-Altenrhein

Current Time: Feb 9, 2016 at 11:46:56 AM

Latest Report: Feb 9, 2016 at 10:50 AM


Visibility: N/A

Pressure: 29.59 "Hg

Humidity: 82%

Dew point: 41 °F

Location of Lindau (Bodensee)Location

Historic Weather in Lindau (Bodensee) — Graph

°F

Lindau (Bodensee) Temperature Yesterday

Maximum temperature yesterday: 57 °F (at 4:50 PM)
Minimum temperature yesterday: 32 °F (at 6:20 AM)
Average temperature yesterday: 46 °F

High & Low Weather Summary for the Past Weeks

 TemperatureHumidityPressure
High61 °F (Feb 7, 10:20 AM)100% (Jan 25, 10:20 PM)30.48 "Hg (Jan 25, 10:20 PM)
Low30 °F (Jan 26, 2:20 AM)29% (Feb 6, 10:50 PM)29.56 "Hg (Feb 7, 10:20 AM)
Average43 °F83%30.17 "Hg
* Reported Jan 25 10:20 AM — Feb 9 10:20 AM, Lindau (Bodensee), Weather by CustomWeather, © 2016

Note: Actual official high and low records may vary slightly from our data, if they occured in-between our weather recording intervals... More about our weather records

Advertising

Lindau (Bodensee) Weather History for the Previous 24 Hours

 ConditionsComfort  
Time TempWeatherWind HumidityBarometerVisibility
10:20 AM
Tue, Feb 9
46 °FLight rain. Broken clouds.5 mph76%29.62 "HgN/A
9:50 AM46 °FBroken clouds.3 mph76%29.62 "HgN/A
9:20 AM46 °FBroken clouds.3 mph76%29.65 "HgN/A
8:50 AM43 °FPassing clouds.5 mph93%29.68 "HgN/A
8:20 AM45 °FSunny.3 mph87%29.68 "Hg10 mi
7:50 AM43 °FPartly sunny.3 mph87%29.71 "HgN/A
7:20 AM45 °FPassing clouds.2 mph81%29.71 "HgN/A
6:50 AM45 °FPassing clouds.5 mph81%29.74 "HgN/A
6:20 AM43 °FLight rain. Passing clouds.5 mph87%29.74 "HgN/A
5:50 AM43 °FPassing clouds.3 mph87%29.74 "HgN/A
5:20 AM43 °FOvercast.3 mph87%29.77 "HgN/A
4:50 AM45 °FClear.3 mph81%29.80 "HgN/A
4:20 AM45 °FPartly cloudy.6 mph81%29.80 "HgN/A
3:50 AM46 °FClear.9 mph76%29.80 "HgN/A
3:20 AM46 °FPartly cloudy.7 mph82%29.83 "HgN/A
2:20 AM46 °FSprinkles. Passing clouds.12 mph82%29.86 "HgN/A
1:50 AM48 °FRain showers. Partly cloudy.20 mph71%29.86 "Hg4 mi
1:20 AM52 °FLight rain. Passing clouds.14 mph54%29.83 "HgN/A
12:50 AM52 °FClear.12 mph54%29.83 "HgN/A
12:20 AM52 °FOvercast.10 mph54%29.83 "HgN/A
11:50 PM
Mon, Feb 8
52 °FMostly cloudy.15 mph54%29.83 "HgN/A
11:20 PM54 °FPassing clouds.13 mph54%29.83 "HgN/A
10:50 PM54 °FLight rain. Overcast.12 mph51%29.80 "HgN/A
10:20 PM54 °FClear.10 mph51%29.80 "HgN/A
9:50 PM54 °FPartly cloudy.10 mph54%29.80 "HgN/A
9:20 PM52 °FSprinkles. Partly cloudy.17 mph62%29.80 "HgN/A
8:50 PM54 °FScattered showers. Passing clouds.17 mph54%29.80 "HgN/A
8:20 PM54 °FScattered showers. Passing clouds.8 mph54%29.77 "HgN/A
7:50 PM54 °FPassing clouds.6 mph54%29.77 "HgN/A
7:20 PM54 °FPassing clouds.5 mph54%29.77 "HgN/A
6:50 PM54 °FPassing clouds.6 mph54%29.74 "HgN/A
6:20 PM50 °FScattered showers. Passing clouds.5 mph67%29.74 "HgN/A
5:50 PM55 °FScattered showers. Passing clouds.8 mph44%29.68 "HgN/A
5:20 PM57 °FScattered showers. Partly sunny.12 mph41%29.68 "HgN/A
4:50 PM57 °FScattered showers. Partly sunny.8 mph39%29.65 "HgN/A
4:20 PM48 °FScattered showers. Partly sunny.5 mph66%29.65 "HgN/A
3:50 PM48 °FPartly sunny.3 mph66%29.68 "HgN/A
3:20 PM54 °FPartly sunny.9 mph51%29.68 "HgN/A
2:50 PM48 °FPassing clouds.8 mph66%29.68 "HgN/A
2:20 PM48 °FSunny.3 mph62%29.68 "Hg10 mi
1:50 PM46 °FSunny.10 mph66%29.71 "Hg10 mi
1:20 PM46 °FSunny.13 mph71%29.71 "Hg10 mi
12:50 PM46 °FSunny.8 mph66%29.71 "Hg10 mi
12:20 PM46 °FPassing clouds.3 mph62%29.71 "HgN/A
11:50 AM45 °FSunny.9 mph71%29.74 "Hg10 mi
11:20 AM45 °FSunny.9 mph76%29.74 "Hg10 mi
Weather by CustomWeather, © 2016

See weather overviewHow to use our weather pages